Hourly Weather Mikolaiv

Today, 15 July, Wednesday

Time Temperature Precipitation Wind Pressure Humidity
00:00 +11°C° 0 mm 0 mps 735 mmHg 90%
01:00 +11°C° 0 mm 0 mps 735 mmHg 91%
02:00 +11°C° 0 mm 0 mps 735 mmHg 91%
03:00 +10°C° 0 mm 0 mps 735 mmHg 91%
04:00 +10°C° 0 mm 0 mps 735 mmHg 91%
05:00 +10°C° 0 mm 0 mps 734 mmHg 92%
06:00 +12°C° 0 mm 0 mps 734 mmHg 88%
07:00 +15°C° 0 mm 1 mps 735 mmHg 85%
08:00 +16°C° 0 mm 1 mps 735 mmHg 82%
09:00 +19°C° 0 mm 1 mps 735 mmHg 76%
10:00 +20°C° 0 mm 1 mps 735 mmHg 71%
11:00 +22°C° 0 mm 1 mps 734 mmHg 65%
12:00 +22°C° 0 mm 1 mps 734 mmHg 62%
13:00 +23°C° 0 mm 1 mps 734 mmHg 60%
14:00 +24°C° 0 mm 1 mps 734 mmHg 57%
15:00 +24°C° 0.1 mm 1 mps 734 mmHg 58%
16:00 +24°C° 0.1 mm 1 mps 733 mmHg 59%
17:00 +24°C° 0.1 mm 1 mps 733 mmHg 60%
18:00 +22°C° 0.1 mm 1 mps 733 mmHg 67%
19:00 +21°C° 0.1 mm 1 mps 733 mmHg 73%
20:00 +19°C° 0.1 mm 1 mps 733 mmHg 79%
21:00 +18°C° 0 mm 1 mps 733 mmHg 82%
22:00 +16°C° 0 mm 1 mps 733 mmHg 84%
23:00 +15°C° 0 mm 1 mps 733 mmHg 87%

Tomorrow, 16 July, Thursday

Time Temperature Precipitation Wind Pressure Humidity
00:00 +15°C° 0 mm 1 mps 733 mmHg 88%
01:00 +15°C° 0 mm 1 mps 733 mmHg 88%
02:00 +14°C° 0 mm 1 mps 733 mmHg 88%
03:00 +14°C° 0 mm 1 mps 733 mmHg 88%
04:00 +14°C° 0 mm 1 mps 732 mmHg 89%
05:00 +13°C° 0 mm 1 mps 732 mmHg 89%
06:00 +15°C° 0 mm 1 mps 732 mmHg 85%
07:00 +18°C° 0 mm 1 mps 733 mmHg 81%
08:00 +19°C° 0 mm 1 mps 733 mmHg 77%
09:00 +21°C° 0 mm 1 mps 733 mmHg 71%
10:00 +22°C° 0 mm 1 mps 733 mmHg 65%
11:00 +24°C° 0 mm 2 mps 733 mmHg 58%
12:00 +24°C° 0.2 mm 2 mps 733 mmHg 60%
13:00 +24°C° 0.2 mm 3 mps 733 mmHg 62%
14:00 +23°C° 0.2 mm 4 mps 732 mmHg 64%
15:00 +22°C° 0.6 mm 4 mps 732 mmHg 71%
16:00 +21°C° 0.6 mm 5 mps 732 mmHg 78%
17:00 +20°C° 0.6 mm 5 mps 732 mmHg 85%
18:00 +19°C° 0.3 mm 4 mps 732 mmHg 87%
19:00 +17°C° 0.3 mm 4 mps 732 mmHg 90%
20:00 +16°C° 0.3 mm 3 mps 732 mmHg 93%
21:00 +16°C° 0.1 mm 3 mps 732 mmHg 93%
22:00 +15°C° 0.1 mm 2 mps 733 mmHg 93%
23:00 +15°C° 0.1 mm 2 mps 733 mmHg 93%

Day after tomorrow, 17 July, Friday

Time Temperature Precipitation Wind Pressure Humidity
00:00 +14°C° 0 mm 2 mps 733 mmHg 93%
01:00 +14°C° 0 mm 1 mps 733 mmHg 93%
02:00 +14°C° 0 mm 1 mps 733 mmHg 93%
03:00 +14°C° 0 mm 1 mps 733 mmHg 93%
04:00 +14°C° 0 mm 1 mps 733 mmHg 93%
05:00 +14°C° 0 mm 1 mps 733 mmHg 93%
06:00 +14°C° 0 mm 0 mps 733 mmHg 91%
07:00 +15°C° 0 mm 0 mps 733 mmHg 89%
08:00 +15°C° 0 mm 0 mps 733 mmHg 86%
09:00 +16°C° 0 mm 0 mps 733 mmHg 83%
10:00 +19°C° 0 mm 1 mps 733 mmHg 80%
11:00 +20°C° 0 mm 1 mps 734 mmHg 76%
12:00 +20°C° 0.1 mm 1 mps 733 mmHg 76%
13:00 +20°C° 0.1 mm 1 mps 733 mmHg 76%
14:00 +20°C° 0.1 mm 1 mps 733 mmHg 76%
15:00 +20°C° 0.4 mm 1 mps 733 mmHg 78%
16:00 +20°C° 0.4 mm 1 mps 733 mmHg 80%
17:00 +20°C° 0.4 mm 1 mps 733 mmHg 82%
18:00 +19°C° 1 mm 1 mps 733 mmHg 86%
19:00 +17°C° 1 mm 2 mps 733 mmHg 90%
20:00 +16°C° 1 mm 2 mps 733 mmHg 94%
21:00 +16°C° 1.1 mm 2 mps 733 mmHg 95%
22:00 +16°C° 1.1 mm 1 mps 733 mmHg 96%
23:00 +16°C° 1.1 mm 1 mps 734 mmHg 97%

18 July, Saturday

Time Temperature Precipitation Wind Pressure Humidity
00:00 +16°C° 0.7 mm 1 mps 734 mmHg 97%
01:00 +16°C° 0.7 mm 1 mps 734 mmHg 97%
02:00 +16°C° 0.7 mm 1 mps 734 mmHg 97%
03:00 +15°C° 0.3 mm 1 mps 734 mmHg 97%
04:00 +15°C° 0.3 mm 1 mps 734 mmHg 97%
05:00 +15°C° 0.3 mm 1 mps 734 mmHg 97%
06:00 +16°C° 0.2 mm 1 mps 734 mmHg 95%
07:00 +18°C° 0.2 mm 1 mps 734 mmHg 93%
08:00 +19°C° 0.2 mm 1 mps 735 mmHg 91%
09:00 +19°C° 0.4 mm 1 mps 735 mmHg 89%
10:00 +20°C° 0.4 mm 1 mps 735 mmHg 86%
11:00 +21°C° 0.4 mm 1 mps 735 mmHg 84%
12:00 +21°C° 0.5 mm 1 mps 734 mmHg 85%
13:00 +20°C° 0.5 mm 1 mps 734 mmHg 87%
14:00 +19°C° 0.5 mm 2 mps 734 mmHg 89%
15:00 +19°C° 0.3 mm 2 mps 734 mmHg 90%
16:00 +19°C° 0.3 mm 1 mps 734 mmHg 92%
17:00 +19°C° 0.3 mm 1 mps 734 mmHg 94%
18:00 +18°C° 0.1 mm 1 mps 734 mmHg 94%
19:00 +18°C° 0.1 mm 1 mps 734 mmHg 95%
20:00 +17°C° 0.1 mm 2 mps 734 mmHg 96%
21:00 +16°C° 0 mm 1 mps 734 mmHg 96%
22:00 +16°C° 0 mm 1 mps 734 mmHg 96%
23:00 +16°C° 0 mm 1 mps 734 mmHg 96%

19 July, Sunday

Time Temperature Precipitation Wind Pressure Humidity
00:00 +16°C° 0 mm 1 mps 734 mmHg 96%
01:00 +16°C° 0 mm 1 mps 734 mmHg 96%
02:00 +16°C° 0 mm 1 mps 734 mmHg 96%
03:00 +15°C° 0.1 mm 0 mps 734 mmHg 96%
04:00 +14°C° 0.1 mm 0 mps 734 mmHg 97%
05:00 +14°C° 0.1 mm 0 mps 733 mmHg 97%
06:00 +15°C° 0 mm 0 mps 733 mmHg 95%
07:00 +16°C° 0 mm 0 mps 733 mmHg 93%
08:00 +17°C° 0 mm 0 mps 733 mmHg 92%
09:00 +19°C° 0 mm 1 mps 734 mmHg 90%
10:00 +20°C° 0 mm 1 mps 734 mmHg 89%
11:00 +21°C° 0 mm 1 mps 734 mmHg 87%
12:00 +20°C° 0.6 mm 2 mps 733 mmHg 87%
13:00 +20°C° 0.6 mm 3 mps 733 mmHg 86%
14:00 +20°C° 0.6 mm 3 mps 733 mmHg 86%
15:00 +20°C° 0.4 mm 3 mps 733 mmHg 87%
16:00 +19°C° 0.4 mm 2 mps 733 mmHg 88%
17:00 +20°C° 0.4 mm 1 mps 732 mmHg 89%
18:00 +19°C° 0.1 mm 1 mps 732 mmHg 91%
19:00 +19°C° 0.1 mm 1 mps 732 mmHg 93%
20:00 +18°C° 0.1 mm 1 mps 732 mmHg 94%
21:00 +18°C° 0.1 mm 1 mps 732 mmHg 95%
22:00 +16°C° 0.1 mm 1 mps 732 mmHg 95%
23:00 +16°C° 0.1 mm 1 mps 733 mmHg 95%

20 July, Monday

Time Temperature Precipitation Wind Pressure Humidity
00:00 +16°C° 0.1 mm 1 mps 732 mmHg 95%
01:00 +15°C° 0.1 mm 1 mps 732 mmHg 96%
02:00 +15°C° 0.1 mm 1 mps 732 mmHg 96%
03:00 +15°C° 0.1 mm 1 mps 732 mmHg 96%
04:00 +15°C° 0.1 mm 1 mps 732 mmHg 96%
05:00 +15°C° 0.1 mm 1 mps 732 mmHg 96%
06:00 +15°C° 0 mm 1 mps 732 mmHg 93%
07:00 +16°C° 0 mm 2 mps 732 mmHg 91%
08:00 +17°C° 0 mm 2 mps 732 mmHg 88%
09:00 +18°C° 0 mm 2 mps 732 mmHg 84%
10:00 +20°C° 0 mm 2 mps 732 mmHg 80%
11:00 +21°C° 0 mm 3 mps 732 mmHg 76%
12:00 +21°C° 0.2 mm 3 mps 732 mmHg 76%
13:00 +22°C° 0.2 mm 3 mps 732 mmHg 76%
14:00 +22°C° 0.2 mm 3 mps 732 mmHg 75%
15:00 +22°C° 0.5 mm 3 mps 731 mmHg 76%
16:00 +22°C° 0.5 mm 3 mps 731 mmHg 78%
17:00 +22°C° 0.5 mm 3 mps 731 mmHg 79%
18:00 +21°C° 0.4 mm 3 mps 731 mmHg 83%
19:00 +20°C° 0.4 mm 3 mps 731 mmHg 87%
20:00 +19°C° 0.4 mm 3 mps 731 mmHg 91%
21:00 +19°C° 0 mm 3 mps 731 mmHg 92%
22:00 +18°C° 0 mm 3 mps 731 mmHg 93%
23:00 +17°C° 0 mm 3 mps 732 mmHg 95%
Show more